Year,Month,Day,Hour,Minute,Value (Times are PST for temperature in C)
2015,07,01,00,00,20.00
2015,07,01,00,01,19.90
2015,07,01,00,02,20.00
2015,07,01,00,03,20.00
2015,07,01,00,04,20.00
2015,07,01,00,05,20.00
2015,07,01,00,06,20.00
2015,07,01,00,07,19.90
2015,07,01,00,08,19.90
2015,07,01,00,09,19.90
2015,07,01,00,10,19.80
2015,07,01,00,11,19.80
2015,07,01,00,12,19.80
2015,07,01,00,13,19.90
2015,07,01,00,14,19.90
2015,07,01,00,15,19.90
2015,07,01,00,16,20.00
2015,07,01,00,17,20.00
2015,07,01,00,18,20.10
2015,07,01,00,19,20.10
2015,07,01,00,20,20.10
2015,07,01,00,21,20.10
2015,07,01,00,22,20.10
2015,07,01,00,23,20.10
2015,07,01,00,24,20.00
2015,07,01,00,25,20.00
2015,07,01,00,26,20.00
2015,07,01,00,27,20.00
2015,07,01,00,28,20.00
2015,07,01,00,29,20.00
2015,07,01,00,30,20.00
2015,07,01,00,31,20.00
2015,07,01,00,32,19.90
2015,07,01,00,33,19.90
2015,07,01,00,34,20.00
2015,07,01,00,35,20.00
2015,07,01,00,36,20.00
2015,07,01,00,37,20.00
2015,07,01,00,38,20.00
2015,07,01,00,39,20.00
2015,07,01,00,40,20.00
2015,07,01,00,41,20.10
2015,07,01,00,42,20.00
2015,07,01,00,43,20.00
2015,07,01,00,44,20.00
2015,07,01,00,45,20.00
2015,07,01,00,46,20.00
2015,07,01,00,47,20.00
2015,07,01,00,48,20.00
2015,07,01,00,49,20.00
2015,07,01,00,50,20.00
2015,07,01,00,51,20.00
2015,07,01,00,52,20.00
2015,07,01,00,53,20.00
2015,07,01,00,54,20.00
2015,07,01,00,55,20.00
2015,07,01,00,56,20.00
2015,07,01,00,57,20.00
2015,07,01,00,58,20.00
2015,07,01,00,59,20.00
2015,07,01,01,00,19.90
2015,07,01,01,01,19.90
2015,07,01,01,02,19.90
2015,07,01,01,03,19.90
2015,07,01,01,04,19.90
2015,07,01,01,05,19.80
2015,07,01,01,06,19.80
2015,07,01,01,07,19.80
2015,07,01,01,08,19.80
2015,07,01,01,09,19.70
2015,07,01,01,10,19.70
2015,07,01,01,11,19.70
2015,07,01,01,12,19.60
2015,07,01,01,13,19.60
2015,07,01,01,14,19.60
2015,07,01,01,15,19.50
2015,07,01,01,16,19.50
2015,07,01,01,17,19.50
2015,07,01,01,18,19.40
2015,07,01,01,19,19.40
2015,07,01,01,20,19.40
2015,07,01,01,21,19.40
2015,07,01,01,22,19.40
2015,07,01,01,23,19.40
2015,07,01,01,24,19.40
2015,07,01,01,25,19.40
2015,07,01,01,26,19.40
2015,07,01,01,27,19.40
2015,07,01,01,28,19.40
2015,07,01,01,29,19.40
2015,07,01,01,30,19.40
2015,07,01,01,31,19.40
2015,07,01,01,32,19.30
2015,07,01,01,33,19.30
2015,07,01,01,34,19.30
2015,07,01,01,35,19.30
2015,07,01,01,36,19.30
2015,07,01,01,37,19.30
2015,07,01,01,38,19.30
2015,07,01,01,39,19.30
2015,07,01,01,40,19.20
2015,07,01,01,41,19.20
2015,07,01,01,42,19.20
2015,07,01,01,43,19.20
2015,07,01,01,44,19.20
2015,07,01,01,45,19.20
2015,07,01,01,46,19.20
2015,07,01,01,47,19.10
2015,07,01,01,48,19.10
2015,07,01,01,49,19.10
2015,07,01,01,50,19.10
2015,07,01,01,51,19.10
2015,07,01,01,52,19.10
2015,07,01,01,53,19.10
2015,07,01,01,54,19.00
2015,07,01,01,55,19.00
2015,07,01,01,56,18.90
2015,07,01,01,57,18.90
2015,07,01,01,58,18.90
2015,07,01,01,59,18.90
2015,07,01,02,00,18.90
2015,07,01,02,01,18.80
2015,07,01,02,02,18.80
2015,07,01,02,03,18.80
2015,07,01,02,04,18.70
2015,07,01,02,05,18.70
2015,07,01,02,06,18.70
2015,07,01,02,07,18.70
2015,07,01,02,08,18.60
2015,07,01,02,09,18.60
2015,07,01,02,10,18.60
2015,07,01,02,11,18.60
2015,07,01,02,12,18.50
2015,07,01,02,13,18.40
2015,07,01,02,14,18.40
2015,07,01,02,15,18.40
2015,07,01,02,16,18.40
2015,07,01,02,17,18.30
2015,07,01,02,18,18.30
2015,07,01,02,19,18.30
2015,07,01,02,20,18.30
2015,07,01,02,21,18.20
2015,07,01,02,22,18.20
2015,07,01,02,23,18.20
2015,07,01,02,24,18.20
2015,07,01,02,25,18.20
2015,07,01,02,26,18.20
2015,07,01,02,27,18.20
2015,07,01,02,28,18.20
2015,07,01,02,29,18.20
2015,07,01,02,30,18.20
2015,07,01,02,31,18.20
2015,07,01,02,32,18.20
2015,07,01,02,33,18.10
2015,07,01,02,34,18.10
2015,07,01,02,35,18.10
2015,07,01,02,36,18.10
2015,07,01,02,37,18.10
2015,07,01,02,38,18.10
2015,07,01,02,39,18.10
2015,07,01,02,40,18.10
2015,07,01,02,41,18.10
2015,07,01,02,42,18.10
2015,07,01,02,43,18.00
2015,07,01,02,44,18.00
2015,07,01,02,45,18.00
2015,07,01,02,46,17.90
2015,07,01,02,47,17.90
2015,07,01,02,48,17.90
2015,07,01,02,49,17.90
2015,07,01,02,50,17.90
2015,07,01,02,51,17.90
2015,07,01,02,52,17.90
2015,07,01,02,53,17.90
2015,07,01,02,54,17.90
2015,07,01,02,55,17.90
2015,07,01,02,56,18.00
2015,07,01,02,57,18.00
2015,07,01,02,58,18.10
2015,07,01,02,59,18.10
2015,07,01,03,00,18.00
2015,07,01,03,01,18.10
2015,07,01,03,02,18.10
2015,07,01,03,06,18.00
2015,07,01,03,07,18.00
2015,07,01,03,08,17.90
2015,07,01,03,09,17.90
2015,07,01,03,10,17.90
2015,07,01,03,11,17.90
2015,07,01,03,12,17.90
2015,07,01,03,13,17.80
2015,07,01,03,14,17.80
2015,07,01,03,15,17.80
2015,07,01,03,16,17.80
2015,07,01,03,17,17.80
2015,07,01,03,18,17.80
2015,07,01,03,19,17.80
2015,07,01,03,20,17.80
2015,07,01,03,21,17.80
2015,07,01,03,22,17.70
2015,07,01,03,23,17.70
2015,07,01,03,24,17.70
2015,07,01,03,25,17.70
2015,07,01,03,26,17.70
2015,07,01,03,27,17.70
2015,07,01,03,28,17.70
2015,07,01,03,29,17.70
2015,07,01,03,30,17.70
2015,07,01,03,31,17.70
2015,07,01,03,32,17.70
2015,07,01,03,33,17.70
2015,07,01,03,34,17.70
2015,07,01,03,35,17.70
2015,07,01,03,36,17.70
2015,07,01,03,37,17.70
2015,07,01,03,38,17.70
2015,07,01,03,39,17.70
2015,07,01,03,40,17.70
2015,07,01,03,41,17.70
2015,07,01,03,42,17.70
2015,07,01,03,43,17.70
2015,07,01,03,44,17.70
2015,07,01,03,45,17.70
2015,07,01,03,46,17.70
2015,07,01,03,47,17.70
2015,07,01,03,48,17.70
2015,07,01,03,49,17.60
2015,07,01,03,50,17.60
2015,07,01,03,51,17.60
2015,07,01,03,52,17.60
2015,07,01,03,53,17.60
2015,07,01,03,54,17.60
2015,07,01,03,55,17.60
2015,07,01,03,56,17.60
2015,07,01,03,57,17.60
2015,07,01,03,58,17.60
2015,07,01,03,59,17.60
2015,07,01,04,00,17.60
2015,07,01,04,01,17.60
2015,07,01,04,02,17.60
2015,07,01,04,03,17.60
2015,07,01,04,04,17.60
2015,07,01,04,05,17.60
2015,07,01,04,06,17.60
2015,07,01,04,07,17.60
2015,07,01,04,08,17.60
2015,07,01,04,09,17.60
2015,07,01,04,10,17.60
2015,07,01,04,11,17.60
2015,07,01,04,12,17.60
2015,07,01,04,13,17.50
2015,07,01,04,14,17.50
2015,07,01,04,15,17.50
2015,07,01,04,16,17.50
2015,07,01,04,17,17.50
2015,07,01,04,18,17.40
2015,07,01,04,19,17.40
2015,07,01,04,20,17.40
2015,07,01,04,21,17.40
2015,07,01,04,22,17.40
2015,07,01,04,23,17.40
2015,07,01,04,24,17.40
2015,07,01,04,25,17.40
2015,07,01,04,26,17.40
2015,07,01,04,27,17.40
2015,07,01,04,28,17.30
2015,07,01,04,29,17.40
2015,07,01,04,30,17.40
2015,07,01,04,31,17.40
2015,07,01,04,32,17.40
2015,07,01,04,33,17.40
2015,07,01,04,34,17.40
2015,07,01,04,35,17.40
2015,07,01,04,36,17.40
2015,07,01,04,37,17.50
2015,07,01,04,38,17.50
2015,07,01,04,39,17.50
2015,07,01,04,40,17.50
2015,07,01,04,41,17.60
2015,07,01,04,42,17.60
2015,07,01,04,43,17.60
2015,07,01,04,44,17.60
2015,07,01,04,45,17.60
2015,07,01,04,46,17.60
2015,07,01,04,47,17.60
2015,07,01,04,48,17.60
2015,07,01,04,49,17.60
2015,07,01,04,50,17.60
2015,07,01,04,51,17.60
2015,07,01,04,52,17.60
2015,07,01,04,53,17.60
2015,07,01,04,54,17.60
2015,07,01,04,55,17.60
2015,07,01,04,56,17.60
2015,07,01,04,57,17.60
2015,07,01,04,58,17.60
2015,07,01,04,59,17.60
2015,07,01,05,00,17.60
2015,07,01,05,01,17.60
2015,07,01,05,02,17.60
2015,07,01,05,03,17.60
2015,07,01,05,04,17.60
2015,07,01,05,05,17.60
2015,07,01,05,06,17.60
2015,07,01,05,07,17.50
2015,07,01,05,08,17.50
2015,07,01,05,09,17.50
2015,07,01,05,10,17.40
2015,07,01,05,11,17.40
2015,07,01,05,12,17.40
2015,07,01,05,13,17.40
2015,07,01,05,14,17.40
2015,07,01,05,15,17.40
2015,07,01,05,16,17.40
2015,07,01,05,17,17.40
2015,07,01,05,18,17.40
2015,07,01,05,19,17.40
2015,07,01,05,20,17.30
2015,07,01,05,21,17.30
2015,07,01,05,22,17.30
2015,07,01,05,23,17.30
2015,07,01,05,24,17.30
2015,07,01,05,25,17.30
2015,07,01,05,26,17.30
2015,07,01,05,27,17.20
2015,07,01,05,28,17.20
2015,07,01,05,29,17.20
2015,07,01,05,30,17.20
2015,07,01,05,31,17.20
2015,07,01,05,32,17.20
2015,07,01,05,33,17.20
2015,07,01,05,34,17.20
2015,07,01,05,35,17.20
2015,07,01,05,36,17.20
2015,07,01,05,37,17.20
2015,07,01,05,38,17.20
2015,07,01,05,39,17.30
2015,07,01,05,40,17.30
2015,07,01,05,41,17.30
2015,07,01,05,42,17.30
2015,07,01,05,43,17.30
2015,07,01,05,44,17.30
2015,07,01,05,45,17.30
2015,07,01,05,46,17.30
2015,07,01,05,47,17.30
2015,07,01,05,48,17.30
2015,07,01,05,49,17.30
2015,07,01,05,50,17.30
2015,07,01,05,51,17.30
2015,07,01,05,52,17.30
2015,07,01,05,53,17.30
2015,07,01,05,54,17.30
2015,07,01,05,55,17.30
2015,07,01,05,56,17.30
2015,07,01,05,57,17.30
2015,07,01,05,58,17.30
2015,07,01,05,59,17.30
2015,07,01,06,00,17.30
2015,07,01,06,01,17.30
2015,07,01,06,02,17.30
2015,07,01,06,03,17.30
2015,07,01,06,04,17.30
2015,07,01,06,05,17.30
2015,07,01,06,06,17.30
2015,07,01,06,07,17.30
2015,07,01,06,08,17.30
2015,07,01,06,09,17.30
2015,07,01,06,10,17.30
2015,07,01,06,11,17.30
2015,07,01,06,12,17.30
2015,07,01,06,13,17.20
2015,07,01,06,14,17.20
2015,07,01,06,15,17.20
2015,07,01,06,16,17.20
2015,07,01,06,17,17.20
2015,07,01,06,18,17.20
2015,07,01,06,19,17.20
2015,07,01,06,20,17.20
2015,07,01,06,21,17.30
2015,07,01,06,22,17.30
2015,07,01,06,23,17.30
2015,07,01,06,24,17.30
2015,07,01,06,25,17.30
2015,07,01,06,26,17.30
2015,07,01,06,27,17.30
2015,07,01,06,28,17.40
2015,07,01,06,29,17.40
2015,07,01,06,30,17.40
2015,07,01,06,31,17.40
2015,07,01,06,32,17.40
2015,07,01,06,33,17.50
2015,07,01,06,34,17.50
2015,07,01,06,35,17.50
2015,07,01,06,36,17.50
2015,07,01,06,37,17.50
2015,07,01,06,38,17.50
2015,07,01,06,39,17.50
2015,07,01,06,40,17.60
2015,07,01,06,41,17.60
2015,07,01,06,42,17.60
2015,07,01,06,43,17.60
2015,07,01,06,44,17.60
2015,07,01,06,45,17.60
2015,07,01,06,46,17.70
2015,07,01,06,47,17.70
2015,07,01,06,48,17.70
2015,07,01,06,49,17.70
2015,07,01,06,50,17.70
2015,07,01,06,51,17.70
2015,07,01,06,52,17.70
2015,07,01,06,53,17.80
2015,07,01,06,54,17.80
2015,07,01,06,55,17.80
2015,07,01,06,56,17.80
2015,07,01,06,57,17.70
2015,07,01,06,58,17.70
2015,07,01,06,59,17.70
2015,07,01,07,00,17.70
2015,07,01,07,01,17.70
2015,07,01,07,02,17.80
2015,07,01,07,03,17.80
2015,07,01,07,04,17.80
2015,07,01,07,05,17.80
2015,07,01,07,06,17.80
2015,07,01,07,07,17.80
2015,07,01,07,08,17.70
2015,07,01,07,09,17.70
2015,07,01,07,10,17.80
2015,07,01,07,11,17.80
2015,07,01,07,12,17.80
2015,07,01,07,13,17.80
2015,07,01,07,14,17.80
2015,07,01,07,15,17.80
2015,07,01,07,16,17.90
2015,07,01,07,17,17.90
2015,07,01,07,18,17.90
2015,07,01,07,19,17.90
2015,07,01,07,20,17.90
2015,07,01,07,21,17.90
2015,07,01,07,22,17.90
2015,07,01,07,23,17.90
2015,07,01,07,24,17.90
2015,07,01,07,25,17.90
2015,07,01,07,26,18.00
2015,07,01,07,27,18.00
2015,07,01,07,28,18.00
2015,07,01,07,29,18.00
2015,07,01,07,30,18.10
2015,07,01,07,31,18.10
2015,07,01,07,32,18.10
2015,07,01,07,33,18.20
2015,07,01,07,34,18.20
2015,07,01,07,35,18.20
2015,07,01,07,36,18.30
2015,07,01,07,37,18.30
2015,07,01,07,38,18.30
2015,07,01,07,39,18.30
2015,07,01,07,40,18.30
2015,07,01,07,41,18.30
2015,07,01,07,42,18.30
2015,07,01,07,43,18.40
2015,07,01,07,44,18.40
2015,07,01,07,45,18.40
2015,07,01,07,46,18.40
2015,07,01,07,47,18.40
2015,07,01,07,48,18.40
2015,07,01,07,49,18.40
2015,07,01,07,50,18.40
2015,07,01,07,51,18.50
2015,07,01,07,52,18.50
2015,07,01,07,53,18.60
2015,07,01,07,54,18.70
2015,07,01,07,55,18.70
2015,07,01,07,56,18.80
2015,07,01,07,57,18.80
2015,07,01,07,58,18.70
2015,07,01,07,59,18.70
2015,07,01,08,00,18.70
2015,07,01,08,01,18.70
2015,07,01,08,02,18.70
2015,07,01,08,03,18.70
2015,07,01,08,04,18.70
2015,07,01,08,05,18.70
2015,07,01,08,06,18.70
2015,07,01,08,07,18.70
2015,07,01,08,08,18.70
2015,07,01,08,09,18.70
2015,07,01,08,10,18.70
2015,07,01,08,11,18.80
2015,07,01,08,12,18.80
2015,07,01,08,13,18.80
2015,07,01,08,14,18.80
2015,07,01,08,15,18.80
2015,07,01,08,16,18.80
2015,07,01,08,17,18.80
2015,07,01,08,18,18.80
2015,07,01,08,19,18.80
2015,07,01,08,20,18.90
2015,07,01,08,21,18.90
2015,07,01,08,22,18.90
2015,07,01,08,23,18.90
2015,07,01,08,24,18.90
2015,07,01,08,25,18.90
2015,07,01,08,26,19.00
2015,07,01,08,27,19.10
2015,07,01,08,28,19.10
2015,07,01,08,29,19.10
2015,07,01,08,30,19.10
2015,07,01,08,31,19.00
2015,07,01,08,32,19.00
2015,07,01,08,33,18.90
2015,07,01,08,34,18.90
2015,07,01,08,35,18.90
2015,07,01,08,36,19.00
2015,07,01,08,37,19.00
2015,07,01,08,38,19.10
2015,07,01,08,39,19.10
2015,07,01,08,40,19.10
2015,07,01,08,41,19.10
2015,07,01,08,42,19.10
2015,07,01,08,43,19.10
2015,07,01,08,44,18.90
2015,07,01,08,45,18.90
2015,07,01,08,46,18.80
2015,07,01,08,47,18.70
2015,07,01,08,48,18.70
2015,07,01,08,49,18.60
2015,07,01,08,50,18.60
2015,07,01,08,51,18.60
2015,07,01,08,52,18.50
2015,07,01,08,53,18.40
2015,07,01,08,54,18.40
2015,07,01,08,55,18.40
2015,07,01,08,56,18.50
2015,07,01,08,57,18.50
2015,07,01,08,58,18.50
2015,07,01,08,59,18.60
2015,07,01,09,00,18.60
2015,07,01,09,01,18.60
2015,07,01,09,02,18.60
2015,07,01,09,03,18.60
2015,07,01,09,04,18.70
2015,07,01,09,05,18.70
2015,07,01,09,06,18.70
2015,07,01,09,07,18.70
2015,07,01,09,08,18.70
2015,07,01,09,09,18.70
2015,07,01,09,10,18.70
2015,07,01,09,11,18.70
2015,07,01,09,12,18.80
2015,07,01,09,13,18.80
2015,07,01,09,14,18.90
2015,07,01,09,15,18.90
2015,07,01,09,16,19.00
2015,07,01,09,17,19.00
2015,07,01,09,18,19.00
2015,07,01,09,19,19.00
2015,07,01,09,20,18.90
2015,07,01,09,21,18.90
2015,07,01,09,22,18.90
2015,07,01,09,23,19.00
2015,07,01,09,24,19.10
2015,07,01,09,25,19.20
2015,07,01,09,26,19.30
2015,07,01,09,27,19.40
2015,07,01,09,28,19.40
2015,07,01,09,29,19.40
2015,07,01,09,30,19.40
2015,07,01,09,31,19.40
2015,07,01,09,32,19.50
2015,07,01,09,33,19.50
2015,07,01,09,34,19.50
2015,07,01,09,35,19.40
2015,07,01,09,36,19.40
2015,07,01,09,37,19.50
2015,07,01,09,38,19.50
2015,07,01,09,39,19.50
2015,07,01,09,40,19.60
2015,07,01,09,41,19.60
2015,07,01,09,42,19.50
2015,07,01,09,43,19.40
2015,07,01,09,44,19.40
2015,07,01,09,45,19.30
2015,07,01,09,46,19.30
2015,07,01,09,47,19.30
2015,07,01,09,48,19.30
2015,07,01,09,49,19.40
2015,07,01,09,50,19.40
2015,07,01,09,51,19.30
2015,07,01,09,52,19.40
2015,07,01,09,53,19.40
2015,07,01,09,54,19.40
2015,07,01,09,55,19.30
2015,07,01,09,56,19.30
2015,07,01,09,57,19.30
2015,07,01,09,58,19.30
2015,07,01,09,59,19.40
2015,07,01,10,00,19.50
2015,07,01,10,01,19.50
2015,07,01,10,02,19.60
2015,07,01,10,03,19.60
2015,07,01,10,04,19.60
2015,07,01,10,05,19.60
2015,07,01,10,06,19.60
2015,07,01,10,07,19.60
2015,07,01,10,08,19.70
2015,07,01,10,09,19.70
2015,07,01,10,10,19.70
2015,07,01,10,11,19.70
2015,07,01,10,12,19.70
2015,07,01,10,13,19.80
2015,07,01,10,14,19.80
2015,07,01,10,15,19.70
2015,07,01,10,16,19.70
2015,07,01,10,17,19.80
2015,07,01,10,18,19.80
2015,07,01,10,19,19.80
2015,07,01,10,20,19.80
2015,07,01,10,21,19.80
2015,07,01,10,22,19.70
2015,07,01,10,23,19.60
2015,07,01,10,24,19.60
2015,07,01,10,25,19.70
2015,07,01,10,26,19.70
2015,07,01,10,27,19.60
2015,07,01,10,28,19.70
2015,07,01,10,29,19.70
2015,07,01,10,30,19.80
2015,07,01,10,31,19.90
2015,07,01,10,32,20.00
2015,07,01,10,33,20.00
2015,07,01,10,34,20.00
2015,07,01,10,35,20.00
2015,07,01,10,36,20.00
2015,07,01,10,37,20.00
2015,07,01,10,38,19.90
2015,07,01,10,39,19.90
2015,07,01,10,40,20.00
2015,07,01,10,41,20.10
2015,07,01,10,42,20.10
2015,07,01,10,43,20.10
2015,07,01,10,44,20.00
2015,07,01,10,45,19.90
2015,07,01,10,46,19.90
2015,07,01,10,47,19.90
2015,07,01,10,48,20.00
2015,07,01,10,49,20.10
2015,07,01,10,50,20.20
2015,07,01,10,51,20.20
2015,07,01,10,52,20.20
2015,07,01,10,53,20.20
2015,07,01,10,54,20.20
2015,07,01,10,55,20.30
2015,07,01,10,56,20.40
2015,07,01,10,57,20.40
2015,07,01,10,58,20.40
2015,07,01,10,59,20.40
2015,07,01,11,00,20.40
2015,07,01,11,01,20.50
2015,07,01,11,02,20.40
2015,07,01,11,03,20.40
2015,07,01,11,04,20.40
2015,07,01,11,05,20.30
2015,07,01,11,06,20.30
2015,07,01,11,07,20.20
2015,07,01,11,08,20.10
2015,07,01,11,09,20.20
2015,07,01,11,10,20.20
2015,07,01,11,11,20.30
2015,07,01,11,12,20.40
2015,07,01,11,13,20.50
2015,07,01,11,14,20.60
2015,07,01,11,15,20.60
2015,07,01,11,16,20.70
2015,07,01,11,17,20.80
2015,07,01,11,18,20.70
2015,07,01,11,19,20.60
2015,07,01,11,20,20.50
2015,07,01,11,21,20.50
2015,07,01,11,22,20.50
2015,07,01,11,23,20.50
2015,07,01,11,24,20.40
2015,07,01,11,25,20.40
2015,07,01,11,26,20.40
2015,07,01,11,27,20.40
2015,07,01,11,28,20.60
2015,07,01,11,29,20.60
2015,07,01,11,30,20.70
2015,07,01,11,31,20.70
2015,07,01,11,32,20.70
2015,07,01,11,33,20.70
2015,07,01,11,34,20.70
2015,07,01,11,35,20.70
2015,07,01,11,36,20.70
2015,07,01,11,37,20.70
2015,07,01,11,38,20.70
2015,07,01,11,39,20.80
2015,07,01,11,40,20.90
2015,07,01,11,41,21.00
2015,07,01,11,42,21.00
2015,07,01,11,43,21.00
2015,07,01,11,44,21.00
2015,07,01,11,45,21.10
2015,07,01,11,46,21.00
2015,07,01,11,47,20.90
2015,07,01,11,48,20.80
2015,07,01,11,49,20.80
2015,07,01,11,50,20.80
2015,07,01,11,51,20.90
2015,07,01,11,52,21.00
2015,07,01,11,53,21.20
2015,07,01,11,54,21.30
2015,07,01,11,55,21.30
2015,07,01,11,56,21.40
2015,07,01,11,57,21.40
2015,07,01,11,58,21.50
2015,07,01,11,59,21.60
2015,07,01,12,00,21.60
2015,07,01,12,01,21.60
2015,07,01,12,02,21.50
2015,07,01,12,03,21.50
2015,07,01,12,04,21.50
2015,07,01,12,05,21.70
2015,07,01,12,06,21.80
2015,07,01,12,07,21.80
2015,07,01,12,08,21.70
2015,07,01,12,09,21.70
2015,07,01,12,10,21.70
2015,07,01,12,11,21.60
2015,07,01,12,12,21.60
2015,07,01,12,13,21.60
2015,07,01,12,14,21.60
2015,07,01,12,15,21.60
2015,07,01,12,16,21.60
2015,07,01,12,17,21.60
2015,07,01,12,18,21.70
2015,07,01,12,19,21.80
2015,07,01,12,20,21.90
2015,07,01,12,21,22.00
2015,07,01,12,22,22.10
2015,07,01,12,23,22.20
2015,07,01,12,24,22.30
2015,07,01,12,25,22.30
2015,07,01,12,26,22.30
2015,07,01,12,27,22.10
2015,07,01,12,28,22.00
2015,07,01,12,29,22.00
2015,07,01,12,30,22.00
2015,07,01,12,31,21.90
2015,07,01,12,32,21.80
2015,07,01,12,33,21.80
2015,07,01,12,34,21.80
2015,07,01,12,35,21.70
2015,07,01,12,36,21.70
2015,07,01,12,37,21.70
2015,07,01,12,38,21.70
2015,07,01,12,39,21.70
2015,07,01,12,40,21.70
2015,07,01,12,41,21.70
2015,07,01,12,42,21.80
2015,07,01,12,43,21.90
2015,07,01,12,44,21.80
2015,07,01,12,45,21.80
2015,07,01,12,46,21.90
2015,07,01,12,47,21.90
2015,07,01,12,48,21.90
2015,07,01,12,49,22.00
2015,07,01,12,50,22.20
2015,07,01,12,51,22.30
2015,07,01,12,52,22.50
2015,07,01,12,53,22.60
2015,07,01,12,54,22.70
2015,07,01,12,55,22.60
2015,07,01,12,56,22.60
2015,07,01,12,57,22.60
2015,07,01,12,58,22.60
2015,07,01,12,59,22.70
2015,07,01,13,00,22.60
2015,07,01,13,01,22.60
2015,07,01,13,02,22.50
2015,07,01,13,03,22.40
2015,07,01,13,04,22.30
2015,07,01,13,05,22.30
2015,07,01,13,06,22.30
2015,07,01,13,07,22.40
2015,07,01,13,08,22.40
2015,07,01,13,09,22.40
2015,07,01,13,10,22.50
2015,07,01,13,11,22.40
2015,07,01,13,12,22.40
2015,07,01,13,13,22.50
2015,07,01,13,14,22.50
2015,07,01,13,15,22.60
2015,07,01,13,16,22.50
2015,07,01,13,17,22.50
2015,07,01,13,18,22.50
2015,07,01,13,19,22.50
2015,07,01,13,20,22.50
2015,07,01,13,21,22.50
2015,07,01,13,22,22.40
2015,07,01,13,23,22.60
2015,07,01,13,24,22.70
2015,07,01,13,25,22.60
2015,07,01,13,26,22.60
2015,07,01,13,27,22.70
2015,07,01,13,28,22.70
2015,07,01,13,29,22.90
2015,07,01,13,30,23.10
2015,07,01,13,31,23.20
2015,07,01,13,32,23.30
2015,07,01,13,33,23.20
2015,07,01,13,34,23.20
2015,07,01,13,35,23.10
2015,07,01,13,36,23.10
2015,07,01,13,37,23.10
2015,07,01,13,38,23.20
2015,07,01,13,39,23.30
2015,07,01,13,40,23.30
2015,07,01,13,41,23.40
2015,07,01,13,42,23.50
2015,07,01,13,43,23.60
2015,07,01,13,44,23.70
2015,07,01,13,45,23.70
2015,07,01,13,46,23.80
2015,07,01,13,47,23.90
2015,07,01,13,48,24.00
2015,07,01,13,49,24.00
2015,07,01,13,50,24.00
2015,07,01,13,51,24.10
2015,07,01,13,52,24.10
2015,07,01,13,53,24.10
2015,07,01,13,54,24.10
2015,07,01,13,55,24.20
2015,07,01,13,56,24.20
2015,07,01,13,57,24.20
2015,07,01,13,58,24.10
2015,07,01,13,59,24.10
2015,07,01,14,00,24.10
2015,07,01,14,01,24.10
2015,07,01,14,02,24.10
2015,07,01,14,03,24.00
2015,07,01,14,04,24.00
2015,07,01,14,05,24.10
2015,07,01,14,06,24.20
2015,07,01,14,07,24.30
2015,07,01,14,08,24.40
2015,07,01,14,09,24.50
2015,07,01,14,10,24.50
2015,07,01,14,11,24.60
2015,07,01,14,12,24.70
2015,07,01,14,13,24.80
2015,07,01,14,14,24.80
2015,07,01,14,15,24.80
2015,07,01,14,16,24.90
2015,07,01,14,17,24.90
2015,07,01,14,18,24.80
2015,07,01,14,19,24.80
2015,07,01,14,20,24.80
2015,07,01,14,21,24.80
2015,07,01,14,22,24.90
2015,07,01,14,23,24.90
2015,07,01,14,24,25.00
2015,07,01,14,25,25.10
2015,07,01,14,26,25.10
2015,07,01,14,27,25.20
2015,07,01,14,28,25.20
2015,07,01,14,29,25.20
2015,07,01,14,30,25.20
2015,07,01,14,31,25.20
2015,07,01,14,32,25.20
2015,07,01,14,33,25.20
2015,07,01,14,34,25.20
2015,07,01,14,35,25.20
2015,07,01,14,36,25.20
2015,07,01,14,37,25.20
2015,07,01,14,38,25.30
2015,07,01,14,39,25.40
2015,07,01,14,40,25.40
2015,07,01,14,41,25.40
2015,07,01,14,42,25.30
2015,07,01,14,43,25.30
2015,07,01,14,44,25.50
2015,07,01,14,45,25.50
2015,07,01,14,46,25.60
2015,07,01,14,47,25.50
2015,07,01,14,48,25.50
2015,07,01,14,49,25.40
2015,07,01,14,50,25.40
2015,07,01,14,51,25.50
2015,07,01,14,52,25.50
2015,07,01,14,53,25.50
2015,07,01,14,54,25.60
2015,07,01,14,55,25.60
2015,07,01,14,56,25.60
2015,07,01,14,57,25.60
2015,07,01,14,58,25.60
2015,07,01,14,59,25.50
2015,07,01,15,00,25.50
2015,07,01,15,01,25.50
2015,07,01,15,02,25.60
2015,07,01,15,03,25.60
2015,07,01,15,04,25.60
2015,07,01,15,05,25.60
2015,07,01,15,06,25.60
2015,07,01,15,07,25.60
2015,07,01,15,08,25.70
2015,07,01,15,09,25.80
2015,07,01,15,10,25.90
2015,07,01,15,11,25.90
2015,07,01,15,12,25.90
2015,07,01,15,13,25.90
2015,07,01,15,14,25.90
2015,07,01,15,15,25.90
2015,07,01,15,16,25.90
2015,07,01,15,17,25.90
2015,07,01,15,18,25.90
2015,07,01,15,19,25.90
2015,07,01,15,20,25.90
2015,07,01,15,21,25.90
2015,07,01,15,22,25.90
2015,07,01,15,23,25.90
2015,07,01,15,24,25.90
2015,07,01,15,25,25.90
2015,07,01,15,26,25.90
2015,07,01,15,27,26.00
2015,07,01,15,28,26.10
2015,07,01,15,29,26.10
2015,07,01,15,30,26.20
2015,07,01,15,31,26.10
2015,07,01,15,32,26.10
2015,07,01,15,33,26.10
2015,07,01,15,34,26.10
2015,07,01,15,35,26.10
2015,07,01,15,36,26.10
2015,07,01,15,37,26.10
2015,07,01,15,38,26.10
2015,07,01,15,39,26.30
2015,07,01,15,40,26.40
2015,07,01,15,41,26.50
2015,07,01,15,42,26.60
2015,07,01,15,43,26.60
2015,07,01,15,44,26.60
2015,07,01,15,45,26.70
2015,07,01,15,46,26.60
2015,07,01,15,47,26.60
2015,07,01,15,48,26.60
2015,07,01,15,49,26.50
2015,07,01,15,50,26.60
2015,07,01,15,51,26.60
2015,07,01,15,52,26.60
2015,07,01,15,53,26.50
2015,07,01,15,54,26.40
2015,07,01,15,55,26.30
2015,07,01,15,56,26.20
2015,07,01,15,57,26.10
2015,07,01,15,58,26.10
2015,07,01,15,59,26.10
2015,07,01,16,00,26.00
2015,07,01,16,01,26.00
2015,07,01,16,02,26.10
2015,07,01,16,03,26.20
2015,07,01,16,04,26.20
2015,07,01,16,05,26.40
2015,07,01,16,06,26.50
2015,07,01,16,07,26.60
2015,07,01,16,08,26.70
2015,07,01,16,09,26.80
2015,07,01,16,10,26.80
2015,07,01,16,11,26.90
2015,07,01,16,12,26.90
2015,07,01,16,13,26.80
2015,07,01,16,14,26.80
2015,07,01,16,15,26.70
2015,07,01,16,16,26.70
2015,07,01,16,17,26.70
2015,07,01,16,18,26.60
2015,07,01,16,19,26.60
2015,07,01,16,20,26.60
2015,07,01,16,21,26.60
2015,07,01,16,22,26.60
2015,07,01,16,23,26.60
2015,07,01,16,24,26.70
2015,07,01,16,25,26.80
2015,07,01,16,26,26.90
2015,07,01,16,27,27.00
2015,07,01,16,28,27.10
2015,07,01,16,29,27.20
2015,07,01,16,30,27.30
2015,07,01,16,31,27.50
2015,07,01,16,32,27.50
2015,07,01,16,33,27.50
2015,07,01,16,34,27.50
2015,07,01,16,35,27.60
2015,07,01,16,36,27.70
2015,07,01,16,37,27.80
2015,07,01,16,38,27.80
2015,07,01,16,39,27.90
2015,07,01,16,40,27.90
2015,07,01,16,41,27.90
2015,07,01,16,42,27.80
2015,07,01,16,43,27.70
2015,07,01,16,44,27.70
2015,07,01,16,45,27.60
2015,07,01,16,46,27.60
2015,07,01,16,47,27.50
2015,07,01,16,48,27.40
2015,07,01,16,49,27.40
2015,07,01,16,50,27.30
2015,07,01,16,51,27.30
2015,07,01,16,52,27.30
2015,07,01,16,53,27.30
2015,07,01,16,54,27.30
2015,07,01,16,55,27.30
2015,07,01,16,56,27.30
2015,07,01,16,57,27.20
2015,07,01,16,58,27.20
2015,07,01,16,59,27.10
2015,07,01,17,00,27.10
2015,07,01,17,01,27.20
2015,07,01,17,02,27.20
2015,07,01,17,03,27.20
2015,07,01,17,04,27.30
2015,07,01,17,05,27.30
2015,07,01,17,06,27.30
2015,07,01,17,07,27.30
2015,07,01,17,08,27.30
2015,07,01,17,09,27.30
2015,07,01,17,10,27.40
2015,07,01,17,11,27.40
2015,07,01,17,12,27.50
2015,07,01,17,13,27.50
2015,07,01,17,14,27.40
2015,07,01,17,15,27.40
2015,07,01,17,16,27.40
2015,07,01,17,17,27.40
2015,07,01,17,18,27.40
2015,07,01,17,19,27.50
2015,07,01,17,20,27.50
2015,07,01,17,21,27.60
2015,07,01,17,22,27.70